Showing default

HAWK-2B, 47508

Orbit data source: Space-Track

HAWK-2B, 47508 is a payload satellite owned by HawkEye 360 (US) in SSO that was launched on Sun, 24 Jan 2021 UTC via an FALCON 9 launch vehicle from the Air Force Eastern Test Range (AFETR). Payload-class satellites include a variety of spacecraft equipped with specific instruments for various scientific and technological missions. These include communications satellites like Starlink; space stations such as the ISS; scientific satellites like the Hubble; Earth observation satellites from companies like Planet Labs, Umbra, and HawkEye 360; GPS; miniature CubeSats for education and research; and military/defense satellites.

Loading next visibility...
Identifier
47508, 2021-006CZ
Orbit
SSO
Country
Flag of USUS
Related business
Manufacturer
UTIAS-SFL
Mission
Operational Commercial Sigint
Bus & Motor
DEFIANT, Unknown motor
Mass
31 kg wet, 30 kg dry
Launch date (UTC)
2021-01-24 (5 years ago)
Launch vehicle
FALCON 9
Launch site
Air Force Eastern Test Range (AFETR)
Object type
Payload
Rocket body
Debris
Shape & HBR
Box + 2 Pan, 1.0 m
Radar Cross Section
0.348 m², Medium (>0.1 m² and < 1m²)

Expand to show TLE details & history
Last TLE update: 17 hours ago

TLE from 17 hours ago
0 HAWK-2B
1 47508U 21006CZ  26145.52383150  .00006889  00000-0  20900-3 0  9993
2 47508  97.2208 189.3221 0004999 286.1708  73.8985 15.34409013296022
Epoch: 2026-05-25T12:34Z
TLE epoch observation values (Epoch: 2026-05-25T12:34:19.041Z)
Latitude
-0.00004°
Longitude
117.63237°
Altitude
464.844 km
Speed
7.635 km/s
True Right ascension
12h 37m 17s
True Declination
0° 00' 00"
Sunlit
Object was in full shadow at epoch
Visualization orbit readout
Latitude
Unknown
Longitude
Unknown
Altitude
Unknown
Speed
Unknown
Apparent Right ascension
Unknown
Apparent Declination
Unknown
Sunlit
N/A
Visualization observer readout
Local Sidereal Time
14:52:47
Azimuth
Unknown
Elevation
Unknown
Doppler factor
Unknown
Orbital elements
Apogee altitude
463.033 km
Perigee altitude
456.197 km
Semi-major axis
6,837.752 km
Eccentricity
0.0005
Inclination
97.2208°
RAAN
189.3221°
Arg. of periapsis
286.1708°
True anomaly
73.95355°
Mean anomaly
73.8985°
Eccentric anomaly
73.92602°
Mean motion
3.8386 °/min
Orbital period
93.78 mins
BSTAR
0.000209
Loading maneuver chart data...
Computing Atmospheric mass density...

Documentation

Showing up to 5 results
|